Location: Unspecified
(43.4680°N, 87.1740°E)
Time: 21:32:53
(UTC+00:00)

CZ-2D R/B - Visible Passes

Search period start: 24 July 2021 00:00
Search period end: 03 August 2021 00:00
Orbit: 551 x 639 km, 97.9° (Epoch: 24 July)

Date Brightness Start Highest point End Pass type
(mag) Time Alt. Az. Time Alt. Az. Time Alt. Az.
24 Jul 3.4 21:57:27 10° N 22:01:25 67° WNW 22:05:27 10° SSW visible
25 Jul 6.1 20:33:10 10° ENE 20:35:04 13° E 20:36:59 10° ESE visible
25 Jul 3.7 22:07:05 10° N 22:10:58 51° WNW 22:14:54 10° SSW visible
26 Jul 5.9 20:42:06 10° NE 20:44:43 17° E 20:47:22 10° SE visible
26 Jul 4.0 22:16:44 10° N 22:20:30 40° WNW 22:24:19 10° SW visible
27 Jul 5.6 20:51:16 10° NE 20:54:22 21° E 20:57:29 10° SE visible
28 Jul 5.3 21:00:33 10° NE 21:03:59 26° E 21:07:28 10° SSE visible
29 Jul 4.9 21:09:54 10° NNE 21:13:36 33° E 21:17:21 10° SSE visible
30 Jul 4.4 21:19:19 10° NNE 21:23:12 43° E 21:27:08 10° S visible
31 Jul 4.0 21:28:47 10° NNE 21:32:47 56° E 21:36:51 10° S visible
01 Aug 3.6 21:38:17 10° NNE 21:42:21 73° E 21:46:31 10° S visible
02 Aug 3.4 21:47:49 10° NNE 21:51:56 88° W 21:56:06 10° SSW visible
